Hourly Data Report for May 15, 2012

All times are specified in Local Standard Time (LST). Add 1 hour to adjust for Daylight Saving Time where and when it is observed.

YARMOUTH A
NOVA SCOTIA

43°49'37.000" N
66°05'17.000" W
42.90 m
8206495
71603
YQI

Download Data

Hourly Data (May 2012)
Hourly Data Report for May 15, 2012
Temp Definition
°C
Dew Point Temp Definition
°C
Rel Hum Definition
%
Wind Dir Definition
10's deg

Wind Spd Definition
km/h
Visibility Definition
km
Stn Press Definition
kPa
Hmdx Definition


Wind Chill Definition


Weather Definition


TIME
00:00 Legend Double Dagger 12.5 10.2 86 22 23 10.0 101.89     LegendNANA
01:00 Legend Double Dagger 13.1 10.5 84 22 20 10.0 101.88     LegendNANA
02:00 Legend Double Dagger 12.4 10.0 85 21 21 10.0 101.87     Cloudy
03:00 Legend Double Dagger 12.2 10.0 86 20 18 10.0 101.88     LegendNANA
04:00 Legend Double Dagger 12.8 10.5 86 22 21 10.0 101.87     LegendNANA
05:00 Legend Double Dagger 12.9 11.2 89 23 22 10.0 101.91     Cloudy
06:00 Legend Double Dagger 13.1 11.0 87 23 20 10.0 101.96     LegendNANA
07:00 Legend Double Dagger 13.5 10.7 83 19 13 10.0 102.01     LegendNANA
08:00 Legend Double Dagger 13.5 10.5 82 16 13 10.0 102.03     Cloudy
09:00 Legend Double Dagger 14.7 11.3 80 16 12 10.0 102.06     LegendNANA
10:00 Legend Double Dagger 16.8 11.4 70 18 18 10.0 102.03     LegendNANA
11:00 Legend Double Dagger 17.3 11.2 67 20 22 10.0 102.05     Cloudy
12:00 Legend Double Dagger 17.9 11.8 67 19 27 10.0 102.03     LegendNANA
13:00 Legend Double Dagger 19.1 12.7 66 17 22 10.0 101.95     LegendNANA
14:00 Legend Double Dagger 16.8 12.4 75 18 31 10.0 101.93     Cloudy
15:00 Legend Double Dagger 18.0 12.5 70 19 30 10.0 101.90     LegendNANA
16:00 Legend Double Dagger 15.6 12.4 81 19 27 10.0 101.88     LegendNANA
17:00 Legend Double Dagger 15.5 12.7 83 18 27 10.0 101.87     Cloudy
18:00 Legend Double Dagger 13.4 11.6 89 18 20 10.0 101.88     LegendNANA
19:00 Legend Double Dagger 12.4 11.5 94 18 19 10.0 101.88     LegendNANA
20:00 Legend Double Dagger 13.0 11.9 93 15 14 10.0 101.84     Cloudy
21:00 Legend Double Dagger 11.6 10.8 95 14 11 10.0 101.83     LegendNANA
22:00 Legend Double Dagger 12.1 11.3 95 14 12 10.0 101.80     LegendNANA
23:00 Legend Double Dagger 12.6 11.8 95 17 15 10.0 101.75     Cloudy

Notes on Data Quality.

Legend

  • E = Estimated
  • M = Missing
  • NA = Not Available
  • ‡ = Partner data that is not subject to review by the National Climate Archives
Date modified: